Zurück zum Katalog

COSMOS 1081

AktivMilitärLEO
NORAD 11296·PAYLOAD·🇷🇺 Russia

Gestartet Mar 15, 1979 von Plesetsk Cosmodrome

Loading…

Nächste Überflüge (nächste 24 Stunden)

TLE

AktuellSource: Space-Track

Epoche: Sep 14, 2026, 01:00 UTC

1 11296U 79024A   26257.04219917 -.00000021  00000-0 -28233-4 0  9993
2 11296  74.0302 265.0651 0040182 291.5550  97.6604 12.57294776180094

Verfolge COSMOS 1081 in Echtzeit mit AllMySat

Download on the App Store